EHI
0 0 0 0 0 0 0 0 0 0 0 0 0 0 0 0 0 0 0 0 0 0 0 0 0 0 0 0 0 0 0 0 0 0 0 0 0 0 0 0 0 0 0 0
0 0 0 0 0 0 0 0 0 0 0 0 0 0 0 0 0 0 0 0 0 0 0 0 0 0 0 0 0 0 0 0 0 0 0 0 0 0 0 0 0 0 0 0
0 0 0 0 0 0 0 0 0 0 0 0 0 0 0 0 0 0 0 0 0 0 0 0 1 1 0 0 0 0 0 0 0 0 0 0 0 0 0 0 0 0 0 0
0 0 0 0 0 0 0 0 0 0 0 0 0 0 0 0 0 0 0 0 0 0 0 0 1 2 1 0 0 0 0 0 0 0 0 0 0 0 0 0 0 0 0 0
0 0 0 0 0 0 0 0 0 0 0 0 0 0 0 0 0 0 0 0 0 0 0 0 1 2 1 0 0 0 0 0 0 0 0 1 1 1 0 0 0 0 0 0
0 0 0 0 0 0 0 0 0 0 0 0 0 0 0 0 0 0 0 0 0 0 0 0 1 2 2 1 1 0 0 0 0 0 0 1 2 1 0 0 0 0 0 0
0 0 0 0 0 0 0 0 0 0 0 0 0 0 0 0 0 0 0 0 0 0 0 0 0 1 2 2 2 1 0 0 0 0 0 1 2 1 0 0 0 0 0 0
0 0 0 0 0 0 0 0 0 0 0 0 0 0 0 0 0 0 0 0 0 0 0 0 0 0 1 1 1 1 0 0 0 0 0 0 0 0 0 0 0 0 0 0
0 0 0 0 0 0 0 0 0 0 0 0 0 0 0 0 0 0 0 0 0 0 0 0 0 0 0 0 0 0 0 0 0 0 0 0 0 0 0 0 0 0 0 0
0 0 0 0 0 0 0 0 0 0 0 0 0 0 0 0 0 0 0 0 0 0 0 0 0 0 0 0 0 0 0 0 0 0 0 0 0 0 0 0 0 0 0 0
0 0 0 0 0 0 0 0 0 0 0 0 0 0 0 0 0 0 0 0 0 0 0 0 0 0 0 0 0 0 0 0 0 0 0 0 0 0 0 0 0 0 0 0
0 0 0 0 0 0 0 0 0 0 0 0 0 0 0 0 0 0 0 0 0 0 0 0 0 0 0 0 0 0 0 0 0 0 0 0 0 0 0 0 0 0 0 0
0 0 0 0 0 0 0 0 0 0 0 0 0 0 0 0 0 0 0 0 0 0 0 0 0 0 0 0 0 0 0 0 0 0 0 0 0 0 0 0 0 0 0 0
0 0 0 0 0 0 0 0 0 0 0 0 0 0 0 0 0 0 0 0 0 0 0 0 0 0 0 0 0 0 0 0 0 0 0 0 0 0 0 0 0 0 0 0
0 0 0 0 0 0 0 0 0 0 0 0 0 0 0 0 0 0 0 0 0 0 0 0 0 0 0 0 0 0 0 0 0 0 0 0 0 0 0 0 0 0 0 0
0 0 0 0 0 0 0 0 0 0 0 0 0 0 0 0 0 0 0 0 0 0 0 0 0 0 0 0 0 0 0 0 0 0 0 0 0 0 0 0 0 0 0 0
0 0 0 0 0 0 0 0 0 0 0 0 0 0 0 0 0 0 0 0 0 0 0 0 0 0 0 0 0 0 0 0 0 0 0 0 0 0 0 0 0 0 0 0
0 0 0 0 0 0 0 0 0 0 0 0 0 0 0 0 0 0 0 0 0 0 0 0 0 0 0 0 0 0 0 0 0 0 0 0 0 0 0 0 0 0 0 0
0 0 0 0 0 0 0 0 0 0 0 0 0 0 0 0 0 0 0 0 0 0 0 0 0 0 0 0 0 0 0 0 0 0 0 0 0 0 0 0 0 0 0 0
0 0 0 0 0 0 0 0 0 0 0 0 0 0 0 0 0 0 0 0 0 0 0 0 0 0 0 0 0 0 0 0 0 0 0 0 0 0 0 0 0 0 0 0
0 0 0 0 0 0 0 0 0 0 0 0 0 0 0 0 0 0 0 0 0 0 0 0 0 0 0 0 0 0 0 0 0 0 0 0 0 0 0 0 0 0 0 0
0 0 0 0 0 0 0 0 0 0 0 0 0 0 0 0 0 0 0 0 0 0 0 0 0 0 0 0 0 0 0 0 0 0 0 0 0 0 0 0 0 0 0 0
0 0 0 0 0 0 0 0 0 0 0 0 0 0 0 0 0 0 0 0 0 0 0 0 0 0 0 0 0 0 0 0 0 0 0 0 0 0 0 0 0 0 0 0
0 0 0 0 0 0 0 0 0 0 0 0 0 0 0 0 0 0 0 0 0 0 0 0 0 0 0 0 0 0 0 0 0 0 0 0 0 0 0 0 0 0 0 0
0 0 0 0 0 0 0 0 0 0 0 0 0 0 0 0 0 0 0 0 0 0 0 0 0 0 0 0 0 0 0 0 0 0 0 0 0 0 0 0 0 0 0 0
0 0 0 0 0 0 0 0 0 0 0 0 0 0 0 0 0 0 0 0 0 0 0 0 0 0 0 0 0 0 0 0 0 0 0 0 0 0 0 0 0 0 0 0
Wind_Speed
3 4 2 5 5 4 4 3 2 4 2 3 4 5 4 3 4 5 5 5 6 7 5 2 3 3 3 3 4 4 4 3 3 2 2 2 1 1 1 1 1 2 2 2
4 2 4 2 2 2 3 2 2 3 1 3 3 4 4 3 5 7 8 8 7 5 3 2 2 3 4 4 4 4 4 4 3 2 2 2 2 1 1 1 1 2 2 2
4 4 1 2 1 2 2 4 4 3 1 1 1 4 3 3 2 3 4 5 7 8 6 4 3 3 3 4 5 4 4 4 3 3 3 3 3 2 2 2 1 1 1 2
3 3 1 1 2 3 4 5 5 3 1 2 1 3 6 3 2 4 5 5 7 7 6 6 5 5 4 5 4 4 4 4 3 4 4 4 3 2 1 1 0 1 1 1
3 1 1 2 4 4 5 1 2 2 2 0 1 2 7 2 4 6 7 7 7 7 7 7 7 7 5 4 4 4 4 4 3 3 4 4 2 1 1 1 1 1 1 1
3 2 2 3 1 2 3 4 4 4 3 1 3 3 6 4 6 5 5 6 6 6 6 6 5 5 4 3 4 4 4 3 3 4 4 4 4 3 2 2 1 1 1 1
4 3 2 1 1 2 4 5 3 3 2 5 2 3 7 5 4 5 6 6 6 5 5 5 6 6 5 5 5 5 5 4 3 4 3 4 4 4 4 3 2 1 0 0
1 5 3 2 4 4 3 6 6 4 4 4 1 5 7 4 3 3 3 3 3 4 5 5 6 6 6 6 6 6 6 5 4 4 3 3 3 3 2 2 2 2 2 1
4 5 4 2 2 6 4 3 5 5 2 1 4 5 7 2 2 1 0 2 3 4 4 5 5 5 5 6 6 7 6 5 5 4 3 3 3 3 2 2 2 2 1 1
5 3 4 2 3 2 4 6 5 4 4 3 4 4 5 5 4 2 1 3 3 3 3 4 4 4 4 4 4 5 6 5 4 4 4 3 3 2 2 2 2 2 1 1
3 3 3 2 2 3 2 3 4 3 4 5 3 7 5 5 4 4 4 3 4 4 4 4 4 4 3 3 3 4 4 4 4 4 3 3 2 2 2 2 1 1 1 1
3 4 2 5 4 2 3 5 6 4 3 4 3 8 4 3 3 3 3 2 2 3 3 3 3 3 3 3 3 4 4 4 4 4 3 3 2 2 2 1 0 1 1 1
3 4 1 5 4 1 1 3 3 4 4 4 4 8 3 2 2 2 2 2 1 2 2 2 2 2 3 3 3 4 4 4 3 4 4 3 3 2 2 1 1 1 1 1
4 3 6 7 6 3 2 2 3 4 4 5 8 8 6 5 4 4 3 2 2 2 2 2 2 2 2 3 3 3 3 3 4 4 4 3 2 2 2 1 1 1 1 2
4 3 4 5 4 3 5 5 5 6 7 8 8 8 9 7 6 5 3 2 2 2 3 3 3 2 2 2 2 3 3 3 4 4 4 3 2 2 2 2 2 2 2 1
2 2 1 3 3 4 5 6 6 6 6 6 6 9 7 5 2 3 3 4 4 4 4 4 4 3 3 3 3 3 3 3 4 4 3 3 3 3 2 2 2 2 2 1
1 3 2 3 3 1 6 7 7 5 5 6 7 8 3 2 4 5 6 6 6 5 5 5 5 5 4 4 4 4 4 3 4 4 3 3 3 3 2 2 2 2 1 1
4 3 2 1 0 6 7 3 4 5 4 4 4 4 3 5 4 3 3 5 5 4 4 4 4 3 3 3 3 4 4 4 4 4 4 3 3 3 2 2 2 1 1 1
5 6 4 2 3 7 6 2 3 4 5 3 4 3 2 1 2 3 2 3 4 4 4 4 4 3 3 3 4 5 4 4 4 4 4 3 4 4 3 2 1 1 1 1
3 3 4 3 3 6 6 3 2 2 4 3 3 3 1 2 0 5 3 2 2 1 2 3 3 3 4 3 4 5 5 4 4 4 4 3 4 4 3 3 2 1 1 1
2 2 3 4 5 7 6 3 1 3 6 3 3 3 3 4 5 4 2 2 1 1 2 3 4 4 4 4 5 5 5 5 4 4 3 3 3 3 3 2 2 2 2 2
5 4 5 4 4 8 3 2 4 6 2 1 2 2 2 3 3 2 1 1 1 1 2 3 3 3 3 4 6 5 5 4 3 4 4 3 3 3 3 3 2 2 2 2
5 6 6 7 7 5 3 4 3 2 2 3 3 2 2 1 3 2 1 1 1 1 2 2 3 3 2 4 5 6 4 4 5 5 4 3 3 2 2 3 3 2 1 1
4 1 2 4 6 5 5 4 3 2 3 4 3 2 2 2 2 2 2 2 2 2 2 2 4 3 3 3 3 4 4 5 5 5 4 3 3 2 2 2 2 2 2 1
5 2 2 5 7 6 5 5 4 3 3 2 1 2 3 2 3 3 3 3 3 2 2 3 4 4 3 3 2 3 4 6 5 4 3 3 3 3 2 1 1 2 2 2
6 7 6 8 7 6 7 5 4 3 4 4 3 2 3 3 4 3 3 3 3 3 3 3 3 3 3 3 3 3 4 6 6 4 3 3 2 2 2 1 0 1 0 0
Wind_Direction
34 72 200 219 203 192 172 176 237 258 222 163 214 243 253 200 192 201 200 200 207 221 230 213 195 175 169 167 160 164 160 155 134 115 114 108 94 46 43 59 97 112 115 120
38 295 247 213 187 161 173 194 257 289 256 180 230 262 259 197 203 204 200 202 211 221 218 200 189 176 179 180 172 166 167 162 159 151 140 131 122 109 71 49 77 97 112 121
181 246 239 141 181 176 220 203 218 236 332 40 51 311 283 258 217 212 209 204 208 205 203 200 192 193 183 179 179 176 170 163 159 135 106 82 61 47 41 39 45 43 101 115
229 262 165 155 240 189 244 228 209 200 141 280 166 276 281 261 258 230 223 213 215 212 200 197 190 190 193 195 181 169 161 156 152 140 135 134 135 149 196 177 132 47 79 103
245 218 164 213 240 194 219 200 152 177 166 290 324 213 282 279 253 246 229 222 220 211 198 197 195 193 194 185 171 165 152 147 147 145 146 141 135 152 118 91 87 64 51 74
247 246 202 214 233 168 137 73 56 47 78 265 236 196 276 242 228 241 228 220 220 212 201 197 189 176 178 168 153 149 146 150 148 148 150 153 150 145 128 119 119 68 40 33
325 317 283 174 82 30 86 91 34 355 1 253 237 201 251 254 237 225 226 220 213 205 192 184 177 178 179 174 168 159 154 159 155 152 159 168 169 165 167 167 169 164 152 222
225 289 270 199 178 184 173 143 161 198 222 274 292 232 254 268 278 250 229 208 186 188 191 191 187 183 182 181 173 166 167 170 164 163 177 176 173 169 174 172 169 178 192 208
187 253 287 267 197 146 144 172 167 137 171 263 274 284 301 304 329 328 178 170 189 192 193 195 189 184 182 180 178 176 173 172 173 174 172 169 168 170 174 170 164 167 177 164
162 234 289 297 72 40 146 144 108 127 162 244 285 271 256 282 286 288 227 208 212 194 189 191 187 186 186 183 174 167 169 176 174 165 165 167 172 172 163 155 169 173 173 147
143 168 300 356 176 187 111 110 115 124 155 164 245 268 233 231 245 241 235 222 208 197 193 193 189 182 169 154 156 165 163 155 154 158 158 152 154 143 140 149 178 179 167 162
149 133 239 261 256 212 171 166 148 154 209 181 193 262 269 244 249 239 235 221 214 204 189 179 170 155 150 151 155 161 160 156 164 155 140 137 132 125 125 134 152 151 163 177
137 123 80 333 334 1 145 162 158 136 131 165 192 259 291 312 297 260 227 217 207 173 152 140 142 155 165 162 161 159 162 162 155 139 132 125 118 120 124 127 114 115 137 131
126 139 177 206 222 214 239 222 175 149 172 209 224 249 285 285 279 272 247 208 180 165 158 161 177 182 177 168 166 163 156 150 144 135 132 130 133 135 132 118 111 101 99 106
114 172 219 238 243 226 230 231 205 201 201 207 234 234 251 252 246 246 225 191 180 175 174 183 189 187 174 157 153 155 150 144 139 133 133 143 138 119 109 106 100 92 87 96
78 155 194 263 250 238 249 243 225 221 218 226 245 257 256 260 245 241 220 196 202 202 196 192 189 182 179 173 167 155 153 149 137 136 141 141 130 119 113 109 104 96 78 65
104 130 136 256 284 308 258 232 214 215 208 196 223 247 274 266 237 228 216 203 210 212 200 193 195 197 194 185 174 168 166 148 139 138 135 132 133 128 126 115 100 104 96 71
158 137 149 231 289 237 246 238 203 210 234 227 238 259 249 245 248 257 225 204 216 213 198 196 194 194 188 172 166 156 145 145 143 137 136 134 133 135 128 113 111 108 100 107
176 154 151 164 233 272 289 272 187 194 252 232 224 255 273 310 16 320 272 216 213 209 199 191 186 183 167 163 163 145 140 144 143 149 155 157 151 143 134 134 147 144 125 111
112 132 143 161 199 238 254 281 272 144 267 258 212 229 226 89 149 270 276 248 242 221 185 166 157 152 156 163 150 144 151 153 166 172 169 158 150 147 153 164 160 135 130 128
115 126 174 191 223 255 259 277 99 171 252 263 208 206 173 196 225 252 255 255 231 207 182 157 152 160 171 162 148 148 157 178 183 160 146 143 146 152 152 143 138 123 116 100
181 177 190 173 210 253 266 133 180 218 253 234 208 208 207 245 271 268 233 209 192 194 155 148 149 158 161 159 154 158 180 183 149 140 141 146 145 143 138 138 130 116 119 109
205 193 190 195 215 241 238 216 229 201 222 231 216 231 207 260 276 275 250 213 214 196 164 154 155 154 160 167 165 171 184 154 141 136 141 144 135 122 128 138 135 118 116 124
264 191 177 247 260 260 263 268 266 243 238 243 234 228 213 245 254 245 233 227 217 209 180 166 158 162 176 181 177 177 163 152 147 148 150 144 138 128 113 120 137 142 158 161
235 189 210 256 272 290 275 253 251 265 270 262 258 237 215 207 232 228 227 215 201 199 184 167 170 175 186 185 179 165 159 151 151 154 151 147 144 147 142 140 164 173 196 186
212 201 205 235 235 229 256 254 235 238 242 232 231 250 238 211 222 229 225 216 195 183 172 165 166 168 177 176 176 173 168 161 155 153 153 154 151 147 147 146 39 354 156 178